[[{"header":{"parameterUnit":"m.s-1","parameterCategory":1,"la1":30.2991,"la2":30.254,"lo1":-89.0895,"lo2":-89.0444,"dy":0.0017,"dx":0.0017,"nx":28,"ny":28,"refTime":"2024-07-11T09:00:00:Z","depth":0,"parameterNumber":2,"parameterNumberName":"U-component_of_WINDS"},"data":[0,0,0,0,0,0,0,0,0,0,0,0,0,0,0,0,0,0,0,0,0,0,0,0,0,0,0,0,0,0,0,0,0,0,0,0,0,0,0,0,0,0,0,0,0,0,0,0,0,0,0,0,0,0,0,0,0,0,3.561,3.5612,0,3.5763,3.5765,3.5767,3.5709,3.5706,3.5702,3.5699,3.5857,3.5864,3.5872,0,0,0,0,0,0,0,0,0,0,0,0,0,3.5267,3.5274,3.561,3.5612,3.5614,3.5763,3.5765,3.5767,3.571,3.5706,3.5701,3.5697,3.5855,3.5863,3.5872,0,0,0,0,0,0,0,0,0,0,0,0,0,3.5418,3.5276,3.5609,3.5603,3.5604,3.5763,3.5765,3.5768,3.5711,3.5705,3.57,3.5695,3.5852,3.5862,3.5874,3.6048,0,0,3.5908,3.5913,0,0,0,0,0,0,0,0,3.541,3.5431,3.5602,3.5604,3.5605,3.5712,3.5702,3.5862,3.5712,3.567,3.5699,3.5693,3.5813,3.5827,3.5867,3.6055,3.6062,3.5909,3.5916,3.592,3.5924,0,0,0,0,0,0,0,3.5399,3.5424,3.567,3.5605,3.5607,3.5592,3.5608,3.5732,3.5769,3.5673,3.567,3.5689,3.5813,3.5857,3.5871,3.6064,3.5908,3.5918,3.5925,3.593,3.6402,3.6408,0,0,0,0,0,0,3.5388,3.5415,3.5666,3.5675,3.5492,3.5603,3.562,3.5683,3.5768,3.5776,3.5693,3.5685,3.584,3.5858,3.5876,3.6085,3.592,3.5931,3.5937,3.6397,3.6404,3.641,0,0,0,0,0,0,3.5381,3.5411,3.5659,3.5544,3.5575,3.5614,3.5685,3.5689,3.5732,3.5782,3.5789,3.5731,3.5837,3.586,3.6005,3.609,3.5936,3.5946,3.639,3.6399,3.6407,3.6506,0,0,0,0,0,0,3.5371,3.5409,3.5475,3.5546,3.5581,3.5787,3.569,3.5695,3.5752,3.5743,3.582,3.5827,3.5834,3.5989,3.6017,3.6103,3.5955,3.6382,3.6394,3.6404,3.6495,3.6517,3.6535,0,0,0,0,0,3.5359,3.5497,3.5479,3.551,3.5665,3.5791,3.5811,3.5816,3.5759,3.5826,3.5858,3.5825,3.6076,3.6004,3.6035,3.6126,3.6377,3.6391,3.6403,3.6486,3.6512,3.6535,0,0,0,0,0,0,3.5436,3.5507,3.5487,3.5652,3.5716,3.5781,3.5867,3.5844,3.5926,3.5915,3.5918,3.5936,3.6085,3.612,3.6038,3.6298,3.6218,3.6238,3.627,3.6296,3.6316,3.6304,3.5964,0,0,0,0,0,3.5472,3.5568,3.5625,3.5765,3.5798,3.5827,3.5882,3.588,3.5947,3.5974,3.6016,3.6083,3.6176,3.6238,3.6327,3.65,3.6515,3.6577,3.6597,3.6613,3.663,3.6724,3.6752,3.6453,3.6453,3.6453,0,0,3.5548,3.5598,3.5659,3.5782,3.5831,3.5931,3.585,3.5959,3.6033,3.599,3.613,3.6164,3.6237,3.6397,3.6469,3.6431,3.6716,3.663,3.6643,3.6651,3.674,3.6768,3.6793,3.6462,3.646,3.6459,0,0,3.5736,3.5784,3.5906,3.5957,3.6033,3.6051,3.608,3.6149,3.617,3.6309,3.6279,3.6367,3.6529,3.6583,3.6631,3.6839,3.6812,3.6868,3.6973,3.7064,3.7088,3.7109,3.7183,3.7209,3.6885,3.6886,3.6886,0,3.5821,3.597,3.5971,3.6083,3.6138,3.6103,3.6226,3.6276,3.6377,3.6416,3.6371,3.6572,3.6619,3.6791,3.6841,3.6882,3.6915,3.686,3.7084,3.7105,3.7125,3.7195,3.7223,3.6892,3.6891,3.6891,3.689,0,3.6069,3.6173,3.6262,3.636,3.6425,3.6542,3.6562,3.6627,3.662,3.6643,3.6785,3.6841,3.694,3.6981,3.6975,3.7152,3.7125,3.7082,3.7001,3.7159,3.7226,3.7253,3.6901,3.6899,3.6897,3.6895,0,0,3.6311,3.6408,3.6441,3.6484,3.6565,3.6645,3.676,3.6857,3.6913,3.6984,3.708,3.7218,3.7178,3.7234,3.7233,3.7313,3.7474,3.7261,3.7262,3.7298,3.7672,3.7703,3.7734,3.7456,3.7461,3.7465,3.7665,0,3.6506,3.6707,3.6712,3.6897,3.6993,3.6961,3.7061,3.7121,3.7146,3.723,3.7257,3.7354,3.7296,3.7329,3.7406,3.7438,3.7549,3.7424,3.7546,3.755,3.7528,3.7769,3.7802,3.7988,3.7691,3.7695,3.7699,0,3.676,3.6838,3.7032,3.7098,3.7139,3.7229,3.7317,3.7399,3.7467,3.7479,3.754,3.7528,3.7645,3.7561,3.7722,3.7637,3.7687,3.771,3.7718,3.7729,3.7634,3.7786,3.8048,3.8075,3.774,3.7736,3.7733,0,3.6916,3.707,3.7206,3.7244,3.7325,3.7389,3.7426,3.7488,3.7546,3.7623,3.7661,3.7751,3.7801,3.7871,3.7884,3.7821,3.8046,3.7962,3.8059,3.8059,3.8108,3.8104,3.838,3.8141,3.8141,3.814,3.8139,0,3.7133,3.7253,3.7277,3.7361,3.7494,3.7498,3.763,3.7662,3.7718,3.7807,3.7785,3.7869,3.7881,3.7968,3.7978,3.811,3.8133,3.8146,3.8147,3.8148,3.8146,3.8181,3.8168,3.8147,3.8146,3.8144,3.8143,0,3.733,3.7351,3.7497,3.7561,3.758,3.7676,3.773,3.781,3.7832,3.7945,3.7972,3.8007,3.8108,3.8127,3.8247,3.8254,3.8411,3.84,3.8388,3.8387,3.8482,3.8473,3.879,3.8831,3.8565,3.8568,3.857,0,3.7467,3.7558,3.7632,3.769,3.7729,3.7823,3.7882,3.7889,3.7951,3.8035,3.8105,3.8203,3.8283,3.8446,3.8482,3.8574,3.8564,3.8669,3.8578,3.8575,3.8565,3.8559,3.8568,3.8686,3.8689,3.8691,3.8693,0,3.7707,3.7713,3.7798,3.7887,3.7957,3.8027,3.8094,3.8143,3.8159,3.823,3.8333,3.8395,3.8516,3.8615,3.8706,3.8744,3.8722,3.8722,3.8749,3.875,3.8739,3.8746,3.8436,3.8714,3.8712,3.8711,3.871,3.8709,3.7878,3.7958,3.8022,3.8117,3.8168,3.823,3.8308,3.834,3.8426,3.8525,3.8524,3.8637,3.8702,3.8822,3.8865,3.8954,3.892,3.896,3.897,3.8979,3.8988,3.8726,3.897,3.897,3.8969,3.8969,3.8968,0,3.8117,3.8156,3.8244,3.8338,3.8413,3.8385,3.8457,3.8521,3.8621,3.8683,3.8761,3.8879,3.8974,3.9017,3.9111,3.9173,3.9166,3.9198,3.9193,3.9202,3.9013,3.8979,3.9202,3.9202,3.9202,3.9202,3.9202,3.9202,3.825,3.8383,3.8396,3.8554,3.8592,3.8702,3.8746,3.8803,3.8853,3.8985,3.9064,3.9091,3.9146,3.9243,3.9329,3.9339,3.9374,3.9411,3.9417,3.9239,3.9215,3.9193,3.9162,3.9419,3.9419,3.9599,3.96,3.9602]},{"header":{"parameterUnit":"m.s-1","parameterCategory":1,"la1":30.2991,"la2":30.254,"lo1":-89.0895,"lo2":-89.0444,"dy":0.0017,"dx":0.0017,"nx":28,"ny":28,"refTime":"2024-07-11T09:00:00:Z","depth":0,"parameterNumber":3,"parameterNumberName":"V-component_of_WINDS"},"data":[0,0,0,0,0,0,0,0,0,0,0,0,0,0,0,0,0,0,0,0,0,0,0,0,0,0,0,0,0,0,0,0,0,0,0,0,0,0,0,0,0,0,0,0,0,0,0,0,0,0,0,0,0,0,0,0,0,0,-0.9485,-0.9486,0,-0.9538,-0.9539,-0.9539,-0.9577,-0.9577,-0.9578,-0.9578,-0.9631,-0.9632,-0.9633,0,0,0,0,0,0,0,0,0,0,0,0,0,-0.9418,-0.9419,-0.9485,-0.9486,-0.9487,-0.9538,-0.9539,-0.9539,-0.9577,-0.9577,-0.9578,-0.9578,-0.9631,-0.9632,-0.9633,0,0,0,0,0,0,0,0,0,0,0,0,0,-0.9456,-0.9419,-0.9485,-0.9512,-0.9515,-0.9538,-0.9539,-0.9539,-0.9577,-0.9577,-0.9578,-0.9578,-0.963,-0.9632,-0.9633,-0.9634,0,0,-0.9639,-0.9639,0,0,0,0,0,0,0,0,-0.9454,-0.9459,-0.9507,-0.951,-0.9513,-0.9552,-0.9534,-0.9571,-0.9577,-0.9553,-0.9578,-0.9579,-0.9604,-0.9608,-0.9617,-0.9637,-0.9639,-0.9639,-0.964,-0.964,-0.9641,0,0,0,0,0,0,0,-0.9452,-0.9457,-0.9506,-0.9508,-0.9512,-0.9521,-0.9527,-0.9541,-0.9575,-0.9555,-0.9558,-0.9564,-0.9606,-0.9615,-0.9618,-0.964,-0.9639,-0.964,-0.9641,-0.9642,-0.9664,-0.9664,0,0,0,0,0,0,-0.9445,-0.9454,-0.9505,-0.9508,-0.9484,-0.9522,-0.9529,-0.9539,-0.9575,-0.9581,-0.9564,-0.9566,-0.9612,-0.9616,-0.962,-0.9624,-0.964,-0.9642,-0.9643,-0.9664,-0.9664,-0.9664,0,0,0,0,0,0,-0.9443,-0.9449,-0.9502,-0.9482,-0.9489,-0.9523,-0.9534,-0.9539,-0.9549,-0.9581,-0.9588,-0.9567,-0.9612,-0.9618,-0.9631,-0.9626,-0.9643,-0.9644,-0.9665,-0.9664,-0.9664,-0.9631,0,0,0,0,0,0,-0.9441,-0.9448,-0.9448,-0.9482,-0.949,-0.9512,-0.9533,-0.954,-0.9552,-0.9555,-0.9586,-0.9592,-0.9613,-0.9628,-0.9632,-0.9629,-0.9646,-0.9665,-0.9665,-0.9664,-0.9633,-0.9629,-0.9627,0,0,0,0,0,-0.9439,-0.9437,-0.9448,-0.9454,-0.9492,-0.9511,-0.9516,-0.9542,-0.9551,-0.9552,-0.9573,-0.9591,-0.9626,-0.9629,-0.9634,-0.9631,-0.9666,-0.9665,-0.9664,-0.9634,-0.963,-0.9627,0,0,0,0,0,0,-0.9402,-0.9442,-0.9455,-0.9464,-0.9484,-0.9518,-0.9519,-0.9536,-0.9554,-0.9556,-0.9587,-0.9593,-0.9603,-0.9619,-0.9621,-0.9634,-0.9648,-0.9648,-0.9624,-0.962,-0.9617,-0.9613,-0.9647,0,0,0,0,0,-0.9395,-0.9407,-0.9442,-0.9446,-0.9456,-0.9486,-0.9495,-0.9513,-0.9535,-0.9544,-0.9566,-0.9587,-0.9603,-0.9612,-0.9629,-0.9635,-0.9643,-0.9636,-0.9633,-0.963,-0.963,-0.9635,-0.9633,-0.966,-0.966,-0.9661,0,0,-0.938,-0.9404,-0.941,-0.944,-0.9457,-0.947,-0.9493,-0.9505,-0.9515,-0.9546,-0.9559,-0.9576,-0.9602,-0.9611,-0.9617,-0.9625,-0.9624,-0.9629,-0.9627,-0.9628,-0.9634,-0.9631,-0.9629,-0.966,-0.966,-0.966,0,0,-0.936,-0.9379,-0.9385,-0.9403,-0.943,-0.945,-0.9452,-0.9483,-0.9496,-0.951,-0.9534,-0.9546,-0.9573,-0.959,-0.9602,-0.959,-0.9607,-0.9595,-0.9579,-0.9584,-0.9581,-0.958,-0.9576,-0.9574,-0.9594,-0.9594,-0.9594,0,-0.9338,-0.9358,-0.9386,-0.9397,-0.941,-0.9439,-0.9446,-0.9462,-0.9493,-0.9501,-0.9509,-0.9544,-0.9563,-0.9578,-0.9575,-0.9584,-0.9587,-0.9591,-0.958,-0.9578,-0.9577,-0.9573,-0.9572,-0.9593,-0.9593,-0.9593,-0.9593,0,-0.9331,-0.9344,-0.9346,-0.9376,-0.9389,-0.9397,-0.9427,-0.9437,-0.9454,-0.9473,-0.9488,-0.9512,-0.9534,-0.9539,-0.9555,-0.9556,-0.9561,-0.9574,-0.9588,-0.9572,-0.9569,-0.9568,-0.959,-0.9591,-0.9591,-0.9592,0,0,-0.9287,-0.9333,-0.9333,-0.9348,-0.938,-0.9391,-0.9402,-0.9424,-0.9432,-0.9453,-0.9463,-0.9485,-0.9498,-0.9512,-0.9531,-0.9535,-0.9525,-0.9549,-0.955,-0.9543,-0.9528,-0.9517,-0.9515,-0.9537,-0.9537,-0.9537,-0.9526,0,-0.9272,-0.9293,-0.9319,-0.933,-0.9344,-0.9373,-0.9382,-0.9403,-0.9422,-0.9436,-0.9457,-0.9473,-0.9489,-0.9497,-0.9503,-0.9525,-0.9522,-0.9526,-0.9546,-0.9546,-0.9538,-0.9514,-0.9502,-0.9491,-0.9525,-0.9525,-0.9525,0,-0.9257,-0.9277,-0.929,-0.9322,-0.9329,-0.9336,-0.936,-0.9373,-0.9398,-0.9411,-0.9427,-0.9448,-0.9461,-0.9475,-0.9493,-0.9495,-0.9505,-0.9518,-0.9518,-0.952,-0.9534,-0.9515,-0.9488,-0.9486,-0.9523,-0.9523,-0.9523,0,-0.9224,-0.9254,-0.9266,-0.9277,-0.9315,-0.932,-0.9336,-0.9362,-0.9374,-0.9394,-0.9402,-0.9424,-0.9435,-0.9452,-0.9478,-0.9485,-0.9494,-0.9509,-0.9505,-0.9505,-0.9505,-0.9505,-0.9479,-0.9512,-0.9512,-0.9512,-0.9512,0,-0.9204,-0.9211,-0.9252,-0.9259,-0.9268,-0.9298,-0.9306,-0.9325,-0.9348,-0.9359,-0.9386,-0.9396,-0.943,-0.9445,-0.9466,-0.9478,-0.9483,-0.9495,-0.95,-0.9492,-0.9491,-0.9498,-0.95,-0.9512,-0.9512,-0.9512,-0.9512,0,-0.9168,-0.9196,-0.9211,-0.9246,-0.9255,-0.926,-0.9291,-0.9299,-0.932,-0.9335,-0.934,-0.9373,-0.9391,-0.9419,-0.9446,-0.946,-0.947,-0.9478,-0.9461,-0.9464,-0.9459,-0.9459,-0.9437,-0.9436,-0.947,-0.9469,-0.9469,0,-0.9153,-0.9159,-0.9196,-0.9206,-0.9221,-0.9236,-0.9249,-0.928,-0.9292,-0.9322,-0.9326,-0.9347,-0.9366,-0.9394,-0.9421,-0.9442,-0.9451,-0.9442,-0.9454,-0.9447,-0.9451,-0.945,-0.9451,-0.9439,-0.9438,-0.9438,-0.9438,0,-0.9124,-0.9138,-0.9155,-0.9178,-0.9192,-0.9211,-0.9232,-0.9238,-0.9273,-0.9286,-0.9306,-0.932,-0.9348,-0.9369,-0.9394,-0.9411,-0.943,-0.9434,-0.9434,-0.9426,-0.9415,-0.9421,-0.9453,-0.9434,-0.9434,-0.9435,-0.9435,-0.9435,-0.9098,-0.9105,-0.9132,-0.9151,-0.917,-0.9189,-0.9198,-0.9221,-0.9238,-0.9264,-0.9281,-0.93,-0.9326,-0.9361,-0.9378,-0.9393,-0.9401,-0.9401,-0.9401,-0.9401,-0.9398,-0.9413,-0.9398,-0.9398,-0.9398,-0.9398,-0.9398,0,-0.907,-0.9089,-0.9106,-0.9134,-0.9149,-0.9167,-0.9191,-0.9202,-0.9219,-0.9242,-0.9259,-0.9283,-0.9303,-0.9332,-0.9354,-0.9361,-0.9371,-0.9366,-0.9366,-0.9369,-0.939,-0.9387,-0.9358,-0.9358,-0.9358,-0.9358,-0.9358,-0.9358,-0.9057,-0.907,-0.9087,-0.9111,-0.913,-0.9149,-0.9161,-0.9179,-0.9197,-0.9222,-0.9239,-0.9258,-0.9283,-0.9308,-0.9328,-0.9336,-0.9343,-0.9336,-0.9346,-0.9364,-0.9368,-0.9371,-0.9369,-0.9337,-0.9337,-0.9325,-0.9325,-0.9325]}]]